Time,TemperatureF,DewpointF,PressureIn,WindDirection,WindDirectionDegrees,WindSpeedMPH,WindSpeedGustMPH,Humidity,HourlyPrecipIn,Conditions,Clouds,dailyrainin,SoftwareType,DateUTC
2013-07-09 00:03:00,79.3,72.2,29.84,South,179,0.0,3.0,79,0.00,,BKN150,0.00,VWS V14.01,2013-07-09 05:03:00,
2013-07-09 00:08:00,79.1,72.0,29.84,South,179,0.0,2.0,79,0.00,,BKN150,0.00,VWS V14.01,2013-07-09 05:08:00,
2013-07-09 00:13:00,79.0,71.9,29.84,South,179,2.0,2.0,79,0.00,,BKN150,0.00,VWS V14.01,2013-07-09 05:13:00,
2013-07-09 00:18:00,78.9,71.5,29.84,South,179,1.0,2.0,78,0.00,,BKN150,0.00,VWS V14.01,2013-07-09 05:18:00,
2013-07-09 00:23:00,78.8,71.4,29.84,South,179,0.0,1.0,78,0.00,,BKN150,0.00,VWS V14.01,2013-07-09 05:23:00,
2013-07-09 00:28:00,78.7,71.3,29.85,South,179,2.0,2.0,78,0.00,,BKN150,0.00,VWS V14.01,2013-07-09 05:28:00,
2013-07-09 00:33:00,78.8,70.6,29.85,South,179,3.0,6.0,76,0.00,,BKN150,0.00,VWS V14.01,2013-07-09 05:33:00,
2013-07-09 00:38:00,79.4,70.4,29.85,South,172,3.0,6.0,74,0.00,,BKN150,0.00,VWS V14.01,2013-07-09 05:38:00,
2013-07-09 00:43:00,79.6,70.2,29.85,South,172,3.0,5.0,73,0.00,,SCT150,0.00,VWS V14.01,2013-07-09 05:43:00,
2013-07-09 00:48:00,79.8,70.0,29.84,South,171,3.0,6.0,72,0.00,,SCT150,0.00,VWS V14.01,2013-07-09 05:48:00,
2013-07-09 00:53:00,80.0,69.8,29.84,South,174,4.0,8.0,71,0.00,,SCT150,0.00,VWS V14.01,2013-07-09 05:53:00,
2013-07-09 00:58:00,80.2,69.5,29.84,South,175,5.0,7.0,70,0.00,,SCT150,0.00,VWS V14.01,2013-07-09 05:58:00,
2013-07-09 01:03:00,80.6,69.5,29.84,South,182,4.0,6.0,69,0.00,,SCT150,0.00,VWS V14.01,2013-07-09 06:03:00,
2013-07-09 01:08:00,80.5,69.4,29.85,South,183,4.0,6.0,69,0.00,,SCT150,0.00,VWS V14.01,2013-07-09 06:08:00,
2013-07-09 01:13:00,80.5,69.4,29.84,South,180,3.0,6.0,69,0.00,,SCT150,0.00,VWS V14.01,2013-07-09 06:13:00,
2013-07-09 01:18:00,80.5,69.4,29.84,SSW,196,4.0,5.0,69,0.00,,SCT150,0.00,VWS V14.01,2013-07-09 06:18:00,
2013-07-09 01:23:00,80.4,69.3,29.84,South,185,4.0,4.0,69,0.00,,SCT150,0.00,VWS V14.01,2013-07-09 06:23:00,
2013-07-09 01:28:00,80.4,69.3,29.84,SSW,196,5.0,6.0,69,0.00,,SCT150,0.00,VWS V14.01,2013-07-09 06:28:00,
2013-07-09 01:33:00,80.5,69.0,29.84,South,187,5.0,7.0,68,0.00,,SCT150,0.00,VWS V14.01,2013-07-09 06:33:00,
2013-07-09 01:38:00,80.7,69.2,29.84,SSW,194,3.0,8.0,68,0.00,,SCT150,0.00,VWS V14.01,2013-07-09 06:38:00,
2013-07-09 01:43:00,80.8,69.3,29.84,SSW,198,5.0,6.0,68,0.00,,SCT180,0.00,VWS V14.01,2013-07-09 06:43:00,
2013-07-09 01:48:00,80.8,68.8,29.84,SSW,205,5.0,5.0,67,0.00,,SCT180,0.00,VWS V14.01,2013-07-09 06:48:00,
2013-07-09 01:53:00,80.8,68.8,29.84,South,191,4.0,5.0,67,0.00,,SCT180,0.00,VWS V14.01,2013-07-09 06:53:00,
2013-07-09 01:58:00,80.9,68.9,29.84,SSW,207,4.0,4.0,67,0.00,,SCT180,0.00,VWS V14.01,2013-07-09 06:58:00,
2013-07-09 02:03:00,80.8,68.8,29.85,SW,219,2.0,4.0,67,0.00,,SCT180,0.00,VWS V14.01,2013-07-09 07:03:00,
2013-07-09 02:08:00,80.7,68.7,29.85,SSW,212,6.0,7.0,67,0.00,,SCT180,0.00,VWS V14.01,2013-07-09 07:08:00,
2013-07-09 02:13:00,80.6,68.6,29.84,SSW,204,5.0,8.0,67,0.00,,SCT180,0.00,VWS V14.01,2013-07-09 07:13:00,
2013-07-09 02:18:00,80.6,69.1,29.84,South,185,4.0,6.0,68,0.00,,SCT180,0.00,VWS V14.01,2013-07-09 07:18:00,
2013-07-09 02:23:00,80.6,69.1,29.83,SSW,197,5.0,7.0,68,0.00,,SCT180,0.00,VWS V14.01,2013-07-09 07:23:00,
2013-07-09 02:28:00,80.5,69.0,29.83,South,184,6.0,7.0,68,0.00,,SCT180,0.00,VWS V14.01,2013-07-09 07:28:00,
2013-07-09 02:33:00,80.5,69.0,29.83,SSW,194,4.0,6.0,68,0.00,,BKN180,0.00,VWS V14.01,2013-07-09 07:33:00,
2013-07-09 02:38:00,80.4,68.9,29.83,SSW,193,5.0,8.0,68,0.00,,BKN180,0.00,VWS V14.01,2013-07-09 07:38:00,
2013-07-09 02:43:00,80.5,69.0,29.83,South,186,4.0,8.0,68,0.00,,,0.00,VWS V14.01,2013-07-09 07:43:00,
2013-07-09 02:48:00,80.6,69.1,29.83,WSW,245,5.0,9.0,68,0.00,,,0.00,VWS V14.01,2013-07-09 07:48:00,
2013-07-09 02:53:00,80.9,68.9,29.83,SW,231,4.0,7.0,67,0.00,,OVC100,0.00,VWS V14.01,2013-07-09 07:53:00,
2013-07-09 02:58:00,81.1,69.1,29.82,South,190,7.0,11.0,67,0.00,,OVC100,0.00,VWS V14.01,2013-07-09 07:58:00,
2013-07-09 03:03:00,81.4,69.0,29.82,SSW,199,6.0,9.0,66,0.00,,OVC100,0.00,VWS V14.01,2013-07-09 08:03:00,
2013-07-09 03:08:00,81.5,69.1,29.83,SW,224,3.0,7.0,66,0.00,,OVC100,0.00,VWS V14.01,2013-07-09 08:08:00,
2013-07-09 03:13:00,81.5,69.5,29.84,NW,314,3.0,4.0,67,0.00,,OVC100,0.00,VWS V14.01,2013-07-09 08:13:00,
2013-07-09 03:18:00,81.3,69.7,29.84,WNW,292,1.0,2.0,68,0.00,,OVC100,0.00,VWS V14.01,2013-07-09 08:18:00,
2013-07-09 03:23:00,81.3,69.7,29.84,West,268,2.0,6.0,68,0.00,,OVC100,0.00,VWS V14.01,2013-07-09 08:23:00,
2013-07-09 03:28:00,81.3,69.7,29.85,WSW,237,7.0,8.0,68,0.00,,OVC100,0.00,VWS V14.01,2013-07-09 08:28:00,
2013-07-09 03:33:00,80.6,70.8,29.85,SW,235,4.0,7.0,72,0.00,,OVC100,0.01,VWS V14.01,2013-07-09 08:33:00,
2013-07-09 03:38:00,78.4,71.0,29.86,WSW,254,6.0,7.0,78,0.00,,OVC100,0.04,VWS V14.01,2013-07-09 08:38:00,
2013-07-09 03:43:00,77.3,70.7,29.87,WSW,253,5.0,6.0,80,0.00,,OVC110,0.04,VWS V14.01,2013-07-09 08:43:00,
2013-07-09 03:48:00,76.6,71.1,29.87,WSW,237,4.0,7.0,83,0.00,,OVC110,0.10,VWS V14.01,2013-07-09 08:48:00,
2013-07-09 03:53:00,75.4,70.6,29.87,WSW,237,8.0,11.0,85,0.00,,OVC110,0.21,VWS V14.01,2013-07-09 08:53:00,
2013-07-09 03:58:00,75.1,70.6,29.88,WSW,241,8.0,14.0,86,0.00,,OVC110,0.26,VWS V14.01,2013-07-09 08:58:00,
2013-07-09 04:03:00,75.1,70.6,29.88,SW,214,4.0,10.0,86,0.00,,OVC110,0.29,VWS V14.01,2013-07-09 09:03:00,
2013-07-09 04:08:00,75.3,70.5,29.88,SW,224,8.0,10.0,85,0.00,,OVC110,0.29,VWS V14.01,2013-07-09 09:08:00,
2013-07-09 04:13:00,75.5,70.7,29.88,SSW,206,4.0,8.0,85,0.00,,OVC110,0.29,VWS V14.01,2013-07-09 09:13:00,
2013-07-09 04:18:00,75.5,71.0,29.87,SW,220,4.0,6.0,86,0.00,,OVC110,0.29,VWS V14.01,2013-07-09 09:18:00,
2013-07-09 04:23:00,75.3,70.8,29.87,SW,218,3.0,5.0,86,0.00,,OVC110,0.29,VWS V14.01,2013-07-09 09:23:00,
2013-07-09 04:28:00,75.3,70.8,29.87,SSW,193,7.0,7.0,86,0.00,,OVC110,0.29,VWS V14.01,2013-07-09 09:28:00,
2013-07-09 04:33:00,75.9,70.7,29.86,SSW,208,6.0,9.0,84,0.00,,OVC110,0.29,VWS V14.01,2013-07-09 09:33:00,
2013-07-09 04:38:00,76.3,71.1,29.86,South,184,8.0,8.0,84,0.00,,OVC110,0.29,VWS V14.01,2013-07-09 09:38:00,
2013-07-09 04:43:00,76.1,70.9,29.86,South,179,5.0,7.0,84,0.00,,OVC200,0.29,VWS V14.01,2013-07-09 09:43:00,
2013-07-09 04:48:00,75.8,71.0,29.86,South,177,10.0,12.0,85,0.00,,OVC200,0.29,VWS V14.01,2013-07-09 09:48:00,
2013-07-09 04:53:00,75.7,70.9,29.86,SSW,207,8.0,10.0,85,0.00,,OVC200,0.29,VWS V14.01,2013-07-09 09:53:00,
2013-07-09 04:58:00,75.8,71.0,29.86,South,188,6.0,10.0,85,0.00,,OVC200,0.29,VWS V14.01,2013-07-09 09:58:00,
2013-07-09 05:03:00,75.8,71.0,29.85,SSE,158,7.0,13.0,85,0.00,,OVC200,0.29,VWS V14.01,2013-07-09 10:03:00,
2013-07-09 05:08:00,75.9,71.1,29.84,South,181,9.0,13.0,85,0.00,,OVC200,0.29,VWS V14.01,2013-07-09 10:08:00,
2013-07-09 05:13:00,75.9,71.1,29.84,SSE,162,10.0,13.0,85,0.00,,OVC200,0.29,VWS V14.01,2013-07-09 10:13:00,
2013-07-09 05:14:00,75.9,71.1,29.84,SSE,168,10.0,16.0,85,0.00,,OVC200,0.29,VWS V14.01,2013-07-09 10:14:00,
2013-07-09 05:19:00,75.8,71.0,29.85,SW,215,8.0,19.0,85,0.00,,OVC200,0.30,VWS V14.01,2013-07-09 10:19:00,
2013-07-09 05:24:00,75.5,71.0,29.83,South,181,13.0,15.0,86,0.00,,OVC200,0.30,VWS V14.01,2013-07-09 10:24:00,
2013-07-09 05:29:00,75.4,70.9,29.83,South,186,13.0,13.0,86,0.00,,OVC200,0.31,VWS V14.01,2013-07-09 10:29:00,
2013-07-09 05:35:00,75.5,71.0,29.82,South,173,10.0,14.0,86,0.00,,OVC200,0.31,VWS V14.01,2013-07-09 10:35:00,
2013-07-09 05:40:00,75.2,71.1,29.81,South,183,7.0,10.0,87,0.00,,OVC200,0.31,VWS V14.01,2013-07-09 10:40:00,
2013-07-09 05:45:00,75.0,70.9,29.82,SSW,193,8.0,12.0,87,0.00,,OVC250,0.31,VWS V14.01,2013-07-09 10:45:00,
2013-07-09 05:50:00,75.1,71.0,29.83,South,172,4.0,7.0,87,0.00,,OVC250,0.31,VWS V14.01,2013-07-09 10:50:00,
2013-07-09 05:55:00,75.0,70.9,29.80,South,188,5.0,10.0,87,0.00,,OVC250,0.31,VWS V14.01,2013-07-09 10:55:00,
2013-07-09 06:00:00,75.1,71.0,29.80,South,170,7.0,8.0,87,0.00,,OVC250,0.31,VWS V14.01,2013-07-09 11:00:00,
2013-07-09 06:05:00,75.3,70.8,29.81,SE,144,7.0,10.0,86,0.00,,OVC250,0.31,VWS V14.01,2013-07-09 11:05:00,
2013-07-09 06:10:00,75.5,71.0,29.81,South,182,6.0,6.0,86,0.00,,OVC250,0.31,VWS V14.01,2013-07-09 11:10:00,
2013-07-09 06:15:00,75.4,70.9,29.82,South,179,3.0,6.0,86,0.00,,OVC250,0.31,VWS V14.01,2013-07-09 11:15:00,
2013-07-09 06:20:00,75.4,70.9,29.83,South,175,3.0,5.0,86,0.00,,OVC250,0.31,VWS V14.01,2013-07-09 11:20:00,
2013-07-09 06:25:00,75.4,70.9,29.83,SSW,197,5.0,5.0,86,0.00,,OVC250,0.31,VWS V14.01,2013-07-09 11:25:00,
2013-07-09 06:30:00,75.5,71.0,29.84,South,188,3.0,9.0,86,0.00,,OVC250,0.31,VWS V14.01,2013-07-09 11:30:00,
2013-07-09 06:35:00,75.8,71.0,29.84,South,190,5.0,8.0,85,0.00,,OVC250,0.31,VWS V14.01,2013-07-09 11:35:00,
2013-07-09 06:40:00,76.1,70.9,29.84,South,178,6.0,10.0,84,0.00,,OVC250,0.31,VWS V14.01,2013-07-09 11:40:00,
2013-07-09 06:45:00,76.6,71.1,29.85,South,191,5.0,7.0,83,0.00,,BKN250,0.31,VWS V14.01,2013-07-09 11:45:00,
2013-07-09 06:50:00,76.7,71.2,29.84,South,187,3.0,9.0,83,0.00,,BKN250,0.31,VWS V14.01,2013-07-09 11:50:00,
2013-07-09 06:55:00,76.7,71.2,29.85,SSE,156,9.0,9.0,83,0.00,,BKN250,0.31,VWS V14.01,2013-07-09 11:55:00,
2013-07-09 07:00:00,76.7,71.2,29.85,South,179,6.0,12.0,83,0.00,,BKN250,0.31,VWS V14.01,2013-07-09 12:00:00,
2013-07-09 07:05:00,76.7,71.2,29.85,South,191,7.0,9.0,83,0.00,,BKN250,0.31,VWS V14.01,2013-07-09 12:05:00,
2013-07-09 07:10:00,76.6,71.4,29.85,South,179,6.0,8.0,84,0.00,,BKN250,0.31,VWS V14.01,2013-07-09 12:10:00,
2013-07-09 07:15:00,76.6,71.4,29.85,South,182,5.0,5.0,84,0.00,,BKN250,0.31,VWS V14.01,2013-07-09 12:15:00,
2013-07-09 07:20:00,76.4,71.2,29.84,SSE,160,8.0,9.0,84,0.00,,BKN250,0.31,VWS V14.01,2013-07-09 12:20:00,
2013-07-09 07:25:00,76.3,71.5,29.84,South,183,8.0,10.0,85,0.00,,BKN250,0.31,VWS V14.01,2013-07-09 12:25:00,
2013-07-09 07:30:00,76.4,71.6,29.84,SSW,193,7.0,8.0,85,0.00,,BKN250,0.31,VWS V14.01,2013-07-09 12:30:00,
2013-07-09 07:35:00,76.4,71.6,29.85,South,189,2.0,5.0,85,0.00,,BKN250,0.31,VWS V14.01,2013-07-09 12:35:00,
2013-07-09 07:40:00,76.3,71.5,29.85,South,186,4.0,6.0,85,0.00,,BKN250,0.31,VWS V14.01,2013-07-09 12:40:00,
2013-07-09 07:45:00,76.1,71.3,29.85,SSW,193,3.0,6.0,85,0.00,,,0.32,VWS V14.01,2013-07-09 12:45:00,
2013-07-09 07:50:00,75.9,71.4,29.84,South,181,5.0,7.0,86,0.00,,,0.32,VWS V14.01,2013-07-09 12:50:00,
2013-07-09 07:55:00,75.7,71.2,29.84,South,191,3.0,5.0,86,0.00,,BKN250,0.32,VWS V14.01,2013-07-09 12:55:00,
2013-07-09 08:00:00,75.5,71.4,29.85,SW,214,1.0,3.0,87,0.00,,BKN250,0.33,VWS V14.01,2013-07-09 13:00:00,
2013-07-09 08:05:00,75.3,71.5,29.85,WSW,241,0.0,0.0,88,0.00,,BKN250,0.35,VWS V14.01,2013-07-09 13:05:00,
2013-07-09 08:10:00,75.1,71.3,29.84,SE,133,0.0,3.0,88,0.00,,BKN250,0.36,VWS V14.01,2013-07-09 13:10:00,
2013-07-09 08:15:00,74.9,71.4,29.83,ESE,109,0.0,1.0,89,0.00,,BKN250,0.36,VWS V14.01,2013-07-09 13:15:00,
2013-07-09 08:20:00,74.6,71.2,29.83,South,177,6.0,7.0,89,0.00,,BKN250,0.36,VWS V14.01,2013-07-09 13:20:00,
2013-07-09 08:25:00,74.6,71.5,29.83,South,172,6.0,8.0,90,0.00,,BKN250,0.36,VWS V14.01,2013-07-09 13:25:00,
2013-07-09 08:30:00,74.6,71.5,29.82,South,178,6.0,9.0,90,0.00,,BKN250,0.36,VWS V14.01,2013-07-09 13:30:00,
2013-07-09 08:35:00,74.7,71.6,29.83,SSE,162,4.0,9.0,90,0.00,,BKN250,0.36,VWS V14.01,2013-07-09 13:35:00,
2013-07-09 08:40:00,74.8,71.7,29.83,South,186,5.0,5.0,90,0.00,,BKN250,0.36,VWS V14.01,2013-07-09 13:40:00,
2013-07-09 08:45:00,75.1,72.0,29.83,South,177,4.0,6.0,90,0.00,,SCT250,0.36,VWS V14.01,2013-07-09 13:45:00,
2013-07-09 08:50:00,75.5,72.0,29.83,South,176,2.0,3.0,89,0.00,,SCT250,0.36,VWS V14.01,2013-07-09 13:50:00,
2013-07-09 08:56:00,75.8,72.3,29.84,South,179,1.0,2.0,89,0.00,,SCT250,0.36,VWS V14.01,2013-07-09 13:56:00,
2013-07-09 09:01:00,76.1,72.6,29.84,SSW,199,3.0,5.0,89,0.00,,SCT250,0.36,VWS V14.01,2013-07-09 14:01:00,
2013-07-09 09:06:00,76.3,72.5,29.84,South,185,4.0,6.0,88,0.00,,SCT250,0.36,VWS V14.01,2013-07-09 14:06:00,
2013-07-09 09:11:00,76.7,72.5,29.84,SW,219,2.0,3.0,87,0.00,,SCT250,0.36,VWS V14.01,2013-07-09 14:11:00,
2013-07-09 09:16:00,77.3,72.8,29.85,South,182,0.0,5.0,86,0.00,,SCT250,0.36,VWS V14.01,2013-07-09 14:16:00,
2013-07-09 09:21:00,77.6,72.7,29.85,SW,233,0.0,3.0,85,0.00,,SCT250,0.36,VWS V14.01,2013-07-09 14:21:00,
2013-07-09 09:26:00,77.9,73.0,29.85,South,183,2.0,4.0,85,0.00,,SCT250,0.36,VWS V14.01,2013-07-09 14:26:00,
2013-07-09 09:31:00,78.0,72.8,29.85,South,189,1.0,6.0,84,0.00,,SCT250,0.36,VWS V14.01,2013-07-09 14:31:00,
2013-07-09 09:36:00,78.1,72.9,29.85,South,182,4.0,5.0,84,0.00,,SCT250,0.36,VWS V14.01,2013-07-09 14:36:00,
2013-07-09 09:41:00,78.2,73.0,29.85,South,179,4.0,5.0,84,0.00,,BKN250,0.36,VWS V14.01,2013-07-09 14:41:00,
2013-07-09 09:46:00,78.4,73.2,29.85,SSW,194,5.0,6.0,84,0.00,,BKN250,0.36,VWS V14.01,2013-07-09 14:46:00,
2013-07-09 09:51:00,78.5,73.3,29.85,South,177,4.0,6.0,84,0.00,,BKN250,0.36,VWS V14.01,2013-07-09 14:51:00,
2013-07-09 09:56:00,78.6,73.4,29.85,SSE,160,4.0,6.0,84,0.00,,BKN250,0.36,VWS V14.01,2013-07-09 14:56:00,
2013-07-09 10:01:00,79.1,73.8,29.85,SSE,162,4.0,6.0,84,0.00,,BKN250,0.36,VWS V14.01,2013-07-09 15:01:00,
2013-07-09 10:06:00,79.8,73.8,29.86,SSE,160,4.0,7.0,82,0.00,,BKN250,0.36,VWS V14.01,2013-07-09 15:06:00,
2013-07-09 10:11:00,80.3,73.9,29.86,SSE,154,1.0,3.0,81,0.00,,BKN250,0.36,VWS V14.01,2013-07-09 15:11:00,
2013-07-09 10:16:00,80.9,73.8,29.86,SSE,154,4.0,5.0,79,0.00,,BKN250,0.36,VWS V14.01,2013-07-09 15:16:00,
2013-07-09 10:21:00,81.4,73.9,29.86,East,99,0.0,2.0,78,0.00,,BKN250,0.36,VWS V14.01,2013-07-09 15:21:00,
2013-07-09 10:26:00,82.0,74.1,29.86,South,179,7.0,7.0,77,0.00,,BKN250,0.36,VWS V14.01,2013-07-09 15:26:00,
2013-07-09 10:31:00,82.3,74.4,29.85,SE,145,4.0,6.0,77,0.00,,BKN250,0.36,VWS V14.01,2013-07-09 15:31:00,
2013-07-09 10:36:00,82.6,73.9,29.85,SSE,156,7.0,12.0,75,0.00,,BKN250,0.36,VWS V14.01,2013-07-09 15:36:00,
2013-07-09 10:41:00,82.7,74.0,29.85,SSE,158,5.0,6.0,75,0.00,,SCT250,0.36,VWS V14.01,2013-07-09 15:41:00,
2013-07-09 10:46:00,82.9,74.6,29.85,SSE,162,4.0,8.0,76,0.00,,SCT250,0.36,VWS V14.01,2013-07-09 15:46:00,
2013-07-09 10:51:00,82.9,73.4,29.85,South,177,9.0,10.0,73,0.00,,SCT250,0.36,VWS V14.01,2013-07-09 15:51:00,
2013-07-09 10:56:00,83.2,74.1,29.85,SSW,206,4.0,8.0,74,0.00,,SCT250,0.36,VWS V14.01,2013-07-09 15:56:00,
2013-07-09 11:01:00,83.4,74.7,29.85,South,170,9.0,16.0,75,0.00,,SCT250,0.36,VWS V14.01,2013-07-09 16:01:00,
2013-07-09 11:06:00,83.5,74.8,29.85,SSW,197,5.0,8.0,75,0.00,,SCT250,0.36,VWS V14.01,2013-07-09 16:06:00,
2013-07-09 11:11:00,83.6,74.4,29.85,SSW,195,7.0,10.0,74,0.00,,SCT250,0.36,VWS V14.01,2013-07-09 16:11:00,
2013-07-09 11:16:00,83.7,74.5,29.84,SW,219,4.0,7.0,74,0.00,,SCT250,0.36,VWS V14.01,2013-07-09 16:16:00,
2013-07-09 11:22:00,84.1,74.5,29.84,SSE,166,4.0,8.0,73,0.00,,SCT250,0.36,VWS V14.01,2013-07-09 16:22:00,
2013-07-09 11:27:00,84.3,74.7,29.84,South,188,5.0,7.0,73,0.00,,SCT250,0.36,VWS V14.01,2013-07-09 16:27:00,
2013-07-09 11:32:00,84.5,73.7,29.84,SSW,195,3.0,3.0,70,0.00,,SCT250,0.36,VWS V14.01,2013-07-09 16:32:00,
2013-07-09 11:37:00,84.7,74.3,29.84,SSE,168,6.0,6.0,71,0.00,,SCT250,0.36,VWS V14.01,2013-07-09 16:37:00,
2013-07-09 11:42:00,84.7,74.7,29.84,SW,232,4.0,8.0,72,0.00,,SCT250,0.36,VWS V14.01,2013-07-09 16:42:00,
2013-07-09 11:47:00,84.5,74.5,29.84,SSE,164,6.0,10.0,72,0.00,,SCT250,0.36,VWS V14.01,2013-07-09 16:47:00,
2013-07-09 11:52:00,84.5,74.5,29.84,SW,216,2.0,7.0,72,0.00,,SCT250,0.36,VWS V14.01,2013-07-09 16:52:00,
2013-07-09 11:57:00,84.8,74.8,29.84,SSW,200,4.0,5.0,72,0.00,,SCT250,0.36,VWS V14.01,2013-07-09 16:57:00,
2013-07-09 12:02:00,85.4,74.9,29.85,SSE,147,3.0,7.0,71,0.00,,SCT250,0.36,VWS V14.01,2013-07-09 17:02:00,
2013-07-09 12:07:00,85.2,75.6,29.84,SW,234,4.0,8.0,73,0.00,,SCT250,0.36,VWS V14.01,2013-07-09 17:07:00,
2013-07-09 12:12:00,85.2,75.2,29.84,SSE,163,2.0,5.0,72,0.00,,SCT250,0.36,VWS V14.01,2013-07-09 17:12:00,
2013-07-09 12:17:00,85.5,75.0,29.84,WSW,255,2.0,5.0,71,0.00,,SCT250,0.36,VWS V14.01,2013-07-09 17:17:00,
2013-07-09 12:22:00,85.8,74.9,29.84,SW,214,3.0,5.0,70,0.00,,SCT250,0.36,VWS V14.01,2013-07-09 17:22:00,
2013-07-09 12:27:00,85.8,75.3,29.84,SW,214,4.0,4.0,71,0.00,,SCT250,0.36,VWS V14.01,2013-07-09 17:27:00,
2013-07-09 12:32:00,85.9,76.2,29.84,SSE,165,7.0,7.0,73,0.00,,SCT110,0.36,VWS V14.01,2013-07-09 17:32:00,
2013-07-09 12:37:00,86.3,75.8,29.83,SSE,154,6.0,9.0,71,0.00,,SCT110,0.36,VWS V14.01,2013-07-09 17:37:00,
2013-07-09 12:42:00,86.2,75.7,29.83,SSW,199,5.0,8.0,71,0.00,,SCT110,0.36,VWS V14.01,2013-07-09 17:42:00,
2013-07-09 12:47:00,86.3,75.8,29.83,SW,231,4.0,7.0,71,0.00,,SCT110,0.36,VWS V14.01,2013-07-09 17:47:00,
2013-07-09 12:52:00,86.1,75.6,29.83,SW,235,3.0,3.0,71,0.00,,SCT110,0.36,VWS V14.01,2013-07-09 17:52:00,
2013-07-09 12:57:00,86.5,76.0,29.83,South,171,5.0,8.0,71,0.00,,SCT110,0.36,VWS V14.01,2013-07-09 17:57:00,
2013-07-09 13:02:00,86.6,76.1,29.83,South,174,5.0,7.0,71,0.00,,SCT110,0.36,VWS V14.01,2013-07-09 18:02:00,
2013-07-09 13:07:00,86.6,76.9,29.83,SSW,192,7.0,10.0,73,0.00,,SCT110,0.36,VWS V14.01,2013-07-09 18:07:00,
2013-07-09 13:12:00,86.6,76.9,29.83,South,180,8.0,11.0,73,0.00,,SCT110,0.36,VWS V14.01,2013-07-09 18:12:00,
2013-07-09 13:17:00,86.7,76.6,29.82,South,188,6.0,11.0,72,0.00,,SCT110,0.36,VWS V14.01,2013-07-09 18:17:00,
2013-07-09 13:22:00,86.9,76.8,29.82,WSW,241,4.0,9.0,72,0.00,,SCT110,0.36,VWS V14.01,2013-07-09 18:22:00,
2013-07-09 13:27:00,87.0,77.7,29.82,WSW,237,4.0,9.0,74,0.00,,SCT110,0.36,VWS V14.01,2013-07-09 18:27:00,
2013-07-09 13:32:00,87.2,76.2,29.82,SW,232,2.0,5.0,70,0.00,,SCT110,0.36,VWS V14.01,2013-07-09 18:32:00,
2013-07-09 13:37:00,87.4,77.3,29.82,SW,217,2.0,6.0,72,0.00,,SCT110,0.36,VWS V14.01,2013-07-09 18:37:00,
2013-07-09 13:43:00,87.6,77.0,29.82,SSW,193,5.0,7.0,71,0.00,,FEW050,0.36,VWS V14.01,2013-07-09 18:43:00,
2013-07-09 13:48:00,87.7,76.3,29.81,WSW,238,1.0,5.0,69,0.00,,FEW050,0.36,VWS V14.01,2013-07-09 18:48:00,
2013-07-09 13:53:00,87.9,76.9,29.82,SW,235,2.0,4.0,70,0.00,,FEW050,0.36,VWS V14.01,2013-07-09 18:53:00,
2013-07-09 13:58:00,88.2,77.6,29.82,WSW,243,4.0,4.0,71,0.00,,FEW050,0.36,VWS V14.01,2013-07-09 18:58:00,
2013-07-09 14:03:00,88.4,76.9,29.82,WSW,242,0.0,1.0,69,0.00,,FEW050,0.36,VWS V14.01,2013-07-09 19:03:00,
2013-07-09 14:08:00,89.3,77.4,29.82,WSW,258,2.0,4.0,68,0.00,,FEW050,0.36,VWS V14.01,2013-07-09 19:08:00,
2013-07-09 14:13:00,89.1,76.7,29.81,SW,216,2.0,4.0,67,0.00,,FEW050,0.36,VWS V14.01,2013-07-09 19:13:00,
2013-07-09 14:18:00,89.0,77.5,29.81,South,189,0.0,6.0,69,0.00,,FEW050,0.36,VWS V14.01,2013-07-09 19:18:00,
2013-07-09 14:23:00,89.3,76.9,29.81,SSW,195,7.0,8.0,67,0.00,,FEW050,0.36,VWS V14.01,2013-07-09 19:23:00,
2013-07-09 14:28:00,89.1,77.2,29.82,WSW,257,4.0,5.0,68,0.00,,FEW050,0.36,VWS V14.01,2013-07-09 19:28:00,
2013-07-09 14:33:00,89.1,78.5,29.81,WSW,240,6.0,6.0,71,0.00,,FEW050,0.36,VWS V14.01,2013-07-09 19:33:00,
2013-07-09 14:38:00,89.3,77.8,29.81,WSW,237,3.0,6.0,69,0.00,,FEW050,0.36,VWS V14.01,2013-07-09 19:38:00,
2013-07-09 14:43:00,89.3,77.4,29.81,South,190,5.0,5.0,68,0.00,,FEW050,0.36,VWS V14.01,2013-07-09 19:43:00,
2013-07-09 14:48:00,89.5,77.6,29.81,WSW,245,3.0,5.0,68,0.00,,FEW050,0.36,VWS V14.01,2013-07-09 19:48:00,
2013-07-09 14:53:00,89.7,77.3,29.81,SW,227,2.0,7.0,67,0.00,,FEW050,0.36,VWS V14.01,2013-07-09 19:53:00,
2013-07-09 14:58:00,89.9,78.4,29.81,South,179,5.0,6.0,69,0.00,,FEW050,0.36,VWS V14.01,2013-07-09 19:58:00,
2013-07-09 15:03:00,90.3,77.9,29.81,SW,218,5.0,5.0,67,0.00,,FEW050,0.36,VWS V14.01,2013-07-09 20:03:00,
2013-07-09 15:08:00,90.5,78.1,29.82,SW,234,2.0,4.0,67,0.00,,FEW050,0.36,VWS V14.01,2013-07-09 20:08:00,
2013-07-09 15:13:00,90.7,77.8,29.82,WNW,285,4.0,4.0,66,0.00,,FEW050,0.36,VWS V14.01,2013-07-09 20:13:00,
2013-07-09 15:18:00,90.5,78.1,29.81,WSW,245,1.0,4.0,67,0.00,,FEW050,0.36,VWS V14.01,2013-07-09 20:18:00,
2013-07-09 15:23:00,91.2,78.3,29.81,South,181,3.0,5.0,66,0.00,,FEW050,0.36,VWS V14.01,2013-07-09 20:23:00,
2013-07-09 15:28:00,91.5,78.1,29.81,South,183,3.0,5.0,65,0.00,,FEW050,0.36,VWS V14.01,2013-07-09 20:28:00,
2013-07-09 15:33:00,91.5,78.5,29.81,SW,221,1.0,5.0,66,0.00,,FEW050,0.36,VWS V14.01,2013-07-09 20:33:00,
2013-07-09 15:38:00,91.3,77.9,29.81,South,186,1.0,4.0,65,0.00,,FEW050,0.36,VWS V14.01,2013-07-09 20:38:00,
2013-07-09 15:43:00,91.6,79.1,29.81,SW,231,3.0,6.0,67,0.00,,FEW055,0.36,VWS V14.01,2013-07-09 20:43:00,
2013-07-09 15:48:00,91.5,77.6,29.81,SW,227,2.0,4.0,64,0.00,,FEW055,0.36,VWS V14.01,2013-07-09 20:48:00,
2013-07-09 15:53:00,91.3,77.9,29.81,SW,230,3.0,4.0,65,0.00,,FEW055,0.36,VWS V14.01,2013-07-09 20:53:00,
2013-07-09 15:58:00,91.3,78.3,29.81,WNW,295,1.0,2.0,66,0.00,,FEW055,0.36,VWS V14.01,2013-07-09 20:58:00,
2013-07-09 16:03:00,91.7,78.3,29.81,WSW,241,2.0,3.0,65,0.00,,FEW055,0.36,VWS V14.01,2013-07-09 21:03:00,
2013-07-09 16:08:00,92.0,78.6,29.81,WSW,241,0.0,0.0,65,0.00,,FEW055,0.36,VWS V14.01,2013-07-09 21:08:00,
2013-07-09 16:13:00,92.9,78.9,29.80,WSW,241,0.0,3.0,64,0.00,,FEW055,0.36,VWS V14.01,2013-07-09 21:13:00,
2013-07-09 16:18:00,93.0,78.6,29.81,West,267,0.0,3.0,63,0.00,,FEW055,0.36,VWS V14.01,2013-07-09 21:18:00,
2013-07-09 16:23:00,93.2,79.2,29.81,West,267,1.0,1.0,64,0.00,,FEW055,0.36,VWS V14.01,2013-07-09 21:23:00,
2013-07-09 16:28:00,93.1,77.7,29.81,WSW,245,2.0,4.0,61,0.00,,FEW055,0.36,VWS V14.01,2013-07-09 21:28:00,
2013-07-09 16:33:00,92.8,77.4,29.81,WSW,245,1.0,4.0,61,0.00,,FEW055,0.36,VWS V14.01,2013-07-09 21:33:00,
2013-07-09 16:38:00,92.5,77.6,29.81,WSW,251,1.0,3.0,62,0.00,,FEW055,0.36,VWS V14.01,2013-07-09 21:38:00,
2013-07-09 16:43:00,92.5,77.6,29.81,WSW,257,1.0,3.0,62,0.00,,FEW055,0.36,VWS V14.01,2013-07-09 21:43:00,
2013-07-09 16:48:00,92.7,77.3,29.81,WSW,257,0.0,2.0,61,0.00,,FEW055,0.36,VWS V14.01,2013-07-09 21:48:00,
2013-07-09 16:53:00,92.6,77.2,29.81,South,184,2.0,4.0,61,0.00,,FEW055,0.36,VWS V14.01,2013-07-09 21:53:00,
2013-07-09 16:58:00,92.4,77.0,29.81,SSW,195,3.0,4.0,61,0.00,,FEW055,0.36,VWS V14.01,2013-07-09 21:58:00,
2013-07-09 17:03:00,92.5,77.1,29.80,South,171,1.0,3.0,61,0.00,,FEW055,0.36,VWS V14.01,2013-07-09 22:03:00,
2013-07-09 17:08:00,93.0,78.6,29.80,South,173,1.0,2.0,63,0.00,,FEW055,0.36,VWS V14.01,2013-07-09 22:08:00,
2013-07-09 17:13:00,93.3,78.3,29.80,NW,320,1.0,2.0,62,0.00,,FEW055,0.36,VWS V14.01,2013-07-09 22:13:00,
2013-07-09 17:18:00,93.7,78.2,29.80,NW,320,1.0,1.0,61,0.00,,FEW055,0.36,VWS V14.01,2013-07-09 22:18:00,
2013-07-09 17:23:00,93.8,77.8,29.80,NW,318,2.0,3.0,60,0.00,,FEW055,0.36,VWS V14.01,2013-07-09 22:23:00,
2013-07-09 17:28:00,93.7,77.2,29.80,NW,318,0.0,2.0,59,0.00,,FEW055,0.36,VWS V14.01,2013-07-09 22:28:00,
2013-07-09 17:33:00,93.8,76.8,29.79,NW,318,1.0,1.0,58,0.00,,FEW055,0.36,VWS V14.01,2013-07-09 22:33:00,
2013-07-09 17:39:00,93.5,76.5,29.79,North,354,1.0,2.0,58,0.00,,FEW055,0.36,VWS V14.01,2013-07-09 22:39:00,
2013-07-09 17:44:00,93.1,76.1,29.79,North,354,0.0,1.0,58,0.00,,FEW050,0.36,VWS V14.01,2013-07-09 22:44:00,
2013-07-09 17:49:00,92.8,75.9,29.79,North,350,1.0,3.0,58,0.00,,FEW050,0.36,VWS V14.01,2013-07-09 22:49:00,
2013-07-09 17:54:00,92.6,76.2,29.79,North,350,0.0,1.0,59,0.00,,FEW050,0.36,VWS V14.01,2013-07-09 22:54:00,
2013-07-09 17:59:00,92.6,76.2,29.79,North,354,1.0,3.0,59,0.00,,FEW050,0.36,VWS V14.01,2013-07-09 22:59:00,
2013-07-09 18:04:00,92.2,76.3,29.79,North,354,2.0,3.0,60,0.00,,FEW050,0.36,VWS V14.01,2013-07-09 23:04:00,
2013-07-09 18:09:00,92.0,76.1,29.79,North,354,2.0,2.0,60,0.00,,FEW050,0.36,VWS V14.01,2013-07-09 23:09:00,
2013-07-09 18:14:00,91.8,75.4,29.79,North,359,0.0,2.0,59,0.00,,FEW050,0.36,VWS V14.01,2013-07-09 23:14:00,
2013-07-09 18:19:00,91.8,76.9,29.79,North,359,1.0,2.0,62,0.00,,FEW050,0.36,VWS V14.01,2013-07-09 23:19:00,
2013-07-09 18:24:00,91.8,76.9,29.79,North,359,2.0,2.0,62,0.00,,FEW050,0.36,VWS V14.01,2013-07-09 23:24:00,
2013-07-09 18:29:00,91.7,76.8,29.79,North,354,1.0,2.0,62,0.00,,FEW050,0.36,VWS V14.01,2013-07-09 23:29:00,
2013-07-09 18:34:00,91.5,75.7,29.79,NNE,14,3.0,5.0,60,0.00,,FEW050,0.36,VWS V14.01,2013-07-09 23:34:00,
2013-07-09 18:39:00,91.2,75.9,29.79,NNE,14,0.0,1.0,61,0.00,,FEW050,0.36,VWS V14.01,2013-07-09 23:39:00,
2013-07-09 18:44:00,91.1,76.3,29.79,NNE,13,5.0,5.0,62,0.00,,FEW050,0.36,VWS V14.01,2013-07-09 23:44:00,
2013-07-09 18:49:00,90.9,76.6,29.79,NNE,14,4.0,5.0,63,0.00,,FEW050,0.36,VWS V14.01,2013-07-09 23:49:00,
2013-07-09 18:54:00,90.6,76.3,29.79,NNE,14,2.0,5.0,63,0.00,,FEW050,0.36,VWS V14.01,2013-07-09 23:54:00,
2013-07-09 18:59:00,90.5,76.7,29.79,NNE,14,0.0,3.0,64,0.00,,FEW050,0.36,VWS V14.01,2013-07-09 23:59:00,
2013-07-09 19:04:00,90.4,77.5,29.79,NNE,14,0.0,0.0,66,0.00,,FEW050,0.36,VWS V14.01,2013-07-10 00:04:00,
2013-07-09 19:09:00,90.3,77.9,29.80,NNE,14,0.0,2.0,67,0.00,,FEW050,0.36,VWS V14.01,2013-07-10 00:09:00,
2013-07-09 19:14:00,90.1,77.7,29.79,North,11,1.0,2.0,67,0.00,,FEW050,0.36,VWS V14.01,2013-07-10 00:14:00,
2013-07-09 19:19:00,90.0,78.0,29.79,North,11,2.0,2.0,68,0.00,,FEW050,0.36,VWS V14.01,2013-07-10 00:19:00,
2013-07-09 19:24:00,89.8,77.8,29.80,North,10,5.0,5.0,68,0.00,,FEW050,0.36,VWS V14.01,2013-07-10 00:24:00,
2013-07-09 19:29:00,89.4,78.3,29.80,North,10,3.0,4.0,70,0.00,,FEW050,0.36,VWS V14.01,2013-07-10 00:29:00,
2013-07-09 19:34:00,89.2,78.1,29.80,North,10,3.0,4.0,70,0.00,,FEW050,0.36,VWS V14.01,2013-07-10 00:34:00,
2013-07-09 19:39:00,89.0,78.4,29.80,North,10,3.0,4.0,71,0.00,,FEW050,0.36,VWS V14.01,2013-07-10 00:39:00,
2013-07-09 19:44:00,88.7,78.1,29.80,North,8,4.0,5.0,71,0.00,,FEW050,0.36,VWS V14.01,2013-07-10 00:44:00,
2013-07-09 19:49:00,88.5,77.5,29.80,North,8,3.0,5.0,70,0.00,,FEW050,0.36,VWS V14.01,2013-07-10 00:49:00,
2013-07-09 19:54:00,88.3,77.3,29.80,North,8,2.0,5.0,70,0.00,,FEW050,0.36,VWS V14.01,2013-07-10 00:54:00,
2013-07-09 19:59:00,88.0,77.4,29.79,North,359,2.0,2.0,71,0.00,,FEW050,0.36,VWS V14.01,2013-07-10 00:59:00,
2013-07-09 20:04:00,87.7,77.1,29.79,North,359,1.0,3.0,71,0.00,,FEW050,0.36,VWS V14.01,2013-07-10 01:04:00,
2013-07-09 20:05:00,87.7,77.1,29.79,North,359,0.0,2.0,71,0.00,,FEW050,0.36,VWS V14.01,2013-07-10 01:05:00,
2013-07-09 20:10:00,87.5,76.9,29.80,North,359,1.0,4.0,71,0.00,,FEW050,0.36,VWS V14.01,2013-07-10 01:10:00,
2013-07-09 20:15:00,87.3,76.8,29.79,North,359,2.0,4.0,71,0.00,,FEW050,0.36,VWS V14.01,2013-07-10 01:15:00,
2013-07-09 20:20:00,87.0,76.5,29.79,North,359,3.0,3.0,71,0.00,,FEW050,0.36,VWS V14.01,2013-07-10 01:20:00,
2013-07-09 20:25:00,86.8,76.3,29.79,North,359,0.0,3.0,71,0.00,,FEW050,0.36,VWS V14.01,2013-07-10 01:25:00,
2013-07-09 20:30:00,86.5,76.4,29.80,North,359,0.0,2.0,72,0.00,,FEW050,0.36,VWS V14.01,2013-07-10 01:30:00,
2013-07-09 20:35:00,86.3,76.2,29.80,North,359,0.0,2.0,72,0.00,,FEW050,0.36,VWS V14.01,2013-07-10 01:35:00,
2013-07-09 20:40:00,86.1,76.0,29.80,North,359,0.0,2.0,72,0.00,,FEW050,0.36,VWS V14.01,2013-07-10 01:40:00,
2013-07-09 20:45:00,85.9,75.8,29.80,North,359,2.0,3.0,72,0.00,,SCT250,0.36,VWS V14.01,2013-07-10 01:45:00,
2013-07-09 20:50:00,85.7,76.1,29.80,North,359,3.0,4.0,73,0.00,,SCT250,0.36,VWS V14.01,2013-07-10 01:50:00,
2013-07-09 20:55:00,85.4,76.2,29.81,North,359,3.0,4.0,74,0.00,,SCT250,0.36,VWS V14.01,2013-07-10 01:55:00,
2013-07-09 21:00:00,85.2,76.0,29.81,North,359,3.0,4.0,74,0.00,,SCT250,0.36,VWS V14.01,2013-07-10 02:00:00,
2013-07-09 21:05:00,85.0,76.2,29.81,North,359,2.0,3.0,75,0.00,,SCT250,0.36,VWS V14.01,2013-07-10 02:05:00,
2013-07-09 21:10:00,84.8,76.0,29.80,North,359,2.0,4.0,75,0.00,,SCT250,0.36,VWS V14.01,2013-07-10 02:10:00,
2013-07-09 21:15:00,84.6,76.2,29.81,North,359,2.0,3.0,76,0.00,,SCT250,0.36,VWS V14.01,2013-07-10 02:15:00,
2013-07-09 21:20:00,84.3,75.9,29.81,North,359,2.0,3.0,76,0.00,,SCT250,0.36,VWS V14.01,2013-07-10 02:20:00,
2013-07-09 21:25:00,84.2,76.2,29.81,North,359,1.0,2.0,77,0.00,,SCT250,0.36,VWS V14.01,2013-07-10 02:25:00,
2013-07-09 21:30:00,84.0,76.0,29.81,North,359,1.0,2.0,77,0.00,,SCT250,0.36,VWS V14.01,2013-07-10 02:30:00,
2013-07-09 21:35:00,83.8,76.2,29.81,North,359,2.0,3.0,78,0.00,,SCT250,0.36,VWS V14.01,2013-07-10 02:35:00,
2013-07-09 21:40:00,83.6,76.0,29.81,North,359,1.0,3.0,78,0.00,,SCT250,0.36,VWS V14.01,2013-07-10 02:40:00,
2013-07-09 21:45:00,83.5,76.3,29.81,North,359,2.0,4.0,79,0.00,,BKN250,0.36,VWS V14.01,2013-07-10 02:45:00,
2013-07-09 21:50:00,83.3,76.1,29.81,North,359,1.0,2.0,79,0.00,,BKN250,0.36,VWS V14.01,2013-07-10 02:50:00,
2013-07-09 21:55:00,83.2,76.0,29.81,North,359,1.0,4.0,79,0.00,,BKN250,0.36,VWS V14.01,2013-07-10 02:55:00,
2013-07-09 22:00:00,83.0,76.2,29.81,North,359,3.0,4.0,80,0.00,,BKN250,0.36,VWS V14.01,2013-07-10 03:00:00,
2013-07-09 22:05:00,82.9,76.1,29.81,North,359,2.0,4.0,80,0.00,,BKN250,0.36,VWS V14.01,2013-07-10 03:05:00,
2013-07-09 22:10:00,82.8,76.0,29.81,North,359,0.0,3.0,80,0.00,,BKN250,0.36,VWS V14.01,2013-07-10 03:10:00,
2013-07-09 22:15:00,82.7,75.9,29.81,North,359,1.0,4.0,80,0.00,,BKN250,0.36,VWS V14.01,2013-07-10 03:15:00,
2013-07-09 22:20:00,82.5,75.7,29.82,North,359,0.0,3.0,80,0.00,,BKN250,0.36,VWS V14.01,2013-07-10 03:20:00,
2013-07-09 22:25:00,82.4,75.6,29.82,North,359,3.0,3.0,80,0.00,,BKN250,0.36,VWS V14.01,2013-07-10 03:25:00,
2013-07-09 22:30:00,82.3,75.5,29.82,North,359,1.0,3.0,80,0.00,,BKN250,0.36,VWS V14.01,2013-07-10 03:30:00,
2013-07-09 22:35:00,82.2,75.8,29.82,North,359,1.0,3.0,81,0.00,,BKN250,0.36,VWS V14.01,2013-07-10 03:35:00,
2013-07-09 22:40:00,82.0,75.6,29.82,North,359,0.0,2.0,81,0.00,,BKN250,0.36,VWS V14.01,2013-07-10 03:40:00,
2013-07-09 22:45:00,82.0,76.0,29.82,North,359,0.0,0.0,82,0.00,,BKN250,0.36,VWS V14.01,2013-07-10 03:45:00,
2013-07-09 22:50:00,81.9,75.9,29.82,North,359,1.0,1.0,82,0.00,,BKN250,0.36,VWS V14.01,2013-07-10 03:50:00,
2013-07-09 22:55:00,81.7,75.7,29.82,North,359,1.0,2.0,82,0.00,,BKN250,0.36,VWS V14.01,2013-07-10 03:55:00,
2013-07-09 23:00:00,81.5,75.8,29.83,North,359,1.0,3.0,83,0.00,,BKN250,0.36,VWS V14.01,2013-07-10 04:00:00,
2013-07-09 23:01:00,81.5,75.8,29.83,North,359,1.0,3.0,83,0.00,,BKN250,0.36,VWS V14.01,2013-07-10 04:01:00,
2013-07-09 23:02:00,81.4,75.7,29.83,North,359,0.0,3.0,83,0.00,,BKN250,0.36,VWS V14.01,2013-07-10 04:02:00,
2013-07-09 23:07:00,81.2,75.9,29.84,NNE,21,2.0,6.0,84,0.00,,BKN250,0.36,VWS V14.01,2013-07-10 04:07:00,
2013-07-09 23:12:00,81.1,75.8,29.84,North,4,2.0,5.0,84,0.00,,BKN250,0.36,VWS V14.01,2013-07-10 04:12:00,
2013-07-09 23:17:00,81.1,75.8,29.84,NNE,24,3.0,4.0,84,0.00,,BKN250,0.36,VWS V14.01,2013-07-10 04:17:00,
2013-07-09 23:22:00,81.0,75.7,29.85,North,8,3.0,4.0,84,0.00,,BKN250,0.36,VWS V14.01,2013-07-10 04:22:00,
2013-07-09 23:27:00,80.9,75.6,29.85,NNE,17,3.0,6.0,84,0.00,,BKN250,0.36,VWS V14.01,2013-07-10 04:27:00,
2013-07-09 23:32:00,80.8,75.5,29.85,North,354,8.0,8.0,84,0.00,,BKN250,0.36,VWS V14.01,2013-07-10 04:32:00,
2013-07-09 23:37:00,80.9,75.3,29.85,NNE,14,5.0,5.0,83,0.00,,BKN250,0.36,VWS V14.01,2013-07-10 04:37:00,
2013-07-09 23:42:00,80.9,75.3,29.85,North,9,4.0,5.0,83,0.00,,OVC250,0.36,VWS V14.01,2013-07-10 04:42:00,
2013-07-09 23:47:00,80.9,75.3,29.85,NNE,29,5.0,6.0,83,0.00,,OVC250,0.36,VWS V14.01,2013-07-10 04:47:00,
2013-07-09 23:52:00,80.9,74.9,29.85,North,354,1.0,7.0,82,0.00,,OVC250,0.36,VWS V14.01,2013-07-10 04:52:00,
2013-07-09 23:57:00,80.9,74.5,29.86,NNE,14,4.0,9.0,81,0.00,,OVC250,0.36,VWS V14.01,2013-07-10 04:57:00,